Weather History for Rogers, AR

Change the Weather History Date:

Monday, April 8, 2013

  Actual Average Record
Temperature  
Mean Temperature 65 °F -  
Max Temperature 70 °F 63 °F 87 °F (2011)
Min Temperature 60 °F 43 °F 21 °F (2007)
Growing Degree Days 15 (Base 50)    
Moisture  
Dew Point 57 °F    
Average Humidity 76    
Maximum Humidity 90    
Minimum Humidity 65    
Precipitation  
Precipitation 0.11 in - - ()
Sea Level Pressure  
Sea Level Pressure 29.76 in    
Wind  
Wind Speed 11 mph (SSE)    
Max Wind Speed 21 mph    
Max Gust Speed 28 mph    
Visibility 10 miles    
Events Rain , Thunderstorm    
Averages and records for this station are not official NWS values.
T = Trace of Precipitation, MM = Missing Value Source: NWS Daily Summary

Daily Weather History Graph

Daily Weather History Graph

Search for Another Location

Airport:

Trip Planner

Search our weather history database for the weather conditions in past years. The results will help you decide how hot, cold, wet, or windy it might be!

Date:

Astronomy

Apr. 08, 2013 Rise Set
Actual Time 6:52 AM CDT 7:44 PM CDT
Civil Twilight 6:25 AM CDT 8:11 PM CDT
Nautical Twilight 5:54 AM CDT 8:42 PM CDT
Astronomical Twilight 5:22 AM CDT 9:14 PM CDT
Moon 5:40 AM CDT (4/8) 6:21 PM CDT (4/8)
Length of Visible Light 13h 45m
Length of Day
12h 52m
Waning Crescent, 3% of the Moon is Illuminated
Apr 8
Waning Crescent
Apr 10
New
Apr 18
First Quarter
Apr 25
Full
May 2
Last Quarter

Hourly Weather History & Observations

Time (CDT) Temp. Dew Point Humidity Pressure Visibility Wind Dir Wind Speed Gust Speed Precip Events Conditions
12:57 AM 64.0 °F 54.0 °F 70% 29.80 in 10.0 mi SSE 8.1 mph - N/A   Overcast
1:57 AM 64.0 °F 53.1 °F 67% 29.78 in 10.0 mi SSE 9.2 mph - N/A   Overcast
2:57 AM 63.0 °F 53.1 °F 70% 29.75 in 10.0 mi SE 6.9 mph - N/A   Mostly Cloudy
3:57 AM 63.0 °F 54.0 °F 72% 29.74 in 10.0 mi South 6.9 mph - 0.00 in Rain Light Rain
4:31 AM 62.6 °F 55.4 °F 77% 29.77 in 10.0 mi SSE 11.5 mph - 0.00 in Rain , Thunderstorm Light Rain
4:57 AM 61.0 °F 55.9 °F 83% 29.75 in 10.0 mi South 15.0 mph - 0.00 in Rain , Thunderstorm Light Thunderstorms and Rain
5:03 AM 60.8 °F 55.4 °F 82% 29.78 in 10.0 mi South 8.1 mph - 0.00 in Rain Light Rain
5:06 AM 60.8 °F 55.4 °F 82% 29.78 in 10.0 mi South 11.5 mph 16.1 mph 0.00 in Rain , Thunderstorm Light Rain
5:57 AM 61.0 °F 57.0 °F 87% 29.75 in 10.0 mi SSW 11.5 mph - 0.04 in Rain , Thunderstorm Thunderstorms and Rain
6:33 AM 60.8 °F 57.2 °F 88% 29.79 in 10.0 mi South 11.5 mph - 0.05 in Rain Light Rain
6:57 AM 61.0 °F 57.9 °F 90% 29.76 in 10.0 mi South 10.4 mph - 0.07 in Rain Light Rain
7:57 AM 62.1 °F 57.9 °F 86% 29.78 in 10.0 mi South 11.5 mph - 0.00 in   Overcast
8:57 AM 63.0 °F 57.0 °F 81% 29.78 in 10.0 mi South 20.7 mph 26.5 mph N/A   Overcast
9:57 AM 64.0 °F 57.0 °F 78% 29.78 in 10.0 mi South 20.7 mph 27.6 mph N/A   Overcast
10:57 AM 64.9 °F 57.9 °F 78% 29.81 in 10.0 mi South 13.8 mph - N/A   Overcast
11:39 AM 66.2 °F 57.2 °F 73% 29.83 in 10.0 mi SSE 15.0 mph - N/A   Overcast
11:57 AM 68.0 °F 57.9 °F 70% 29.79 in 10.0 mi SSE 20.7 mph - N/A   Overcast
12:57 PM 70.0 °F 59.0 °F 68% 29.78 in 10.0 mi South 13.8 mph 26.5 mph N/A   Overcast
1:57 PM 68.0 °F 57.9 °F 70% 29.76 in 10.0 mi SSE 17.3 mph - N/A   Overcast
2:57 PM 68.0 °F 57.9 °F 70% 29.75 in 10.0 mi SSE 16.1 mph - N/A   Overcast
3:57 PM 66.0 °F 57.9 °F 75% 29.74 in 10.0 mi SE 10.4 mph - N/A   Overcast
4:57 PM 66.9 °F 57.9 °F 73% 29.74 in 10.0 mi ESE 9.2 mph - N/A   Overcast
5:27 PM 66.2 °F 59.0 °F 78% 29.76 in 10.0 mi East 8.1 mph - N/A   Overcast
5:57 PM 66.9 °F 59.0 °F 76% 29.73 in 10.0 mi East 6.9 mph - N/A   Overcast
6:57 PM 70.0 °F 57.9 °F 65% 29.74 in 10.0 mi SSE 9.2 mph - N/A   Overcast
7:57 PM 69.1 °F 57.9 °F 68% 29.75 in 10.0 mi SE 9.2 mph - N/A   Overcast
8:57 PM 68.0 °F 57.9 °F 70% 29.75 in 10.0 mi SE 8.1 mph - N/A   Partly Cloudy
9:57 PM 66.0 °F 57.0 °F 73% 29.75 in 10.0 mi SE 5.8 mph - N/A   Partly Cloudy
10:57 PM 64.9 °F 57.0 °F 75% 29.74 in 10.0 mi ESE 8.1 mph - N/A   Scattered Clouds
11:57 PM 64.9 °F 55.9 °F 73% 29.74 in 10.0 mi ESE 5.8 mph - N/A   Mostly Cloudy